Location: Philomena
(55.1756°N, 111.6233°W)
Time: 10:19:40
(UTC+00:00)

PCSat - Pass Details

Date: 11 December 2023
Orbit: 784 x 791 km, 67.0° (Epoch: 23 February)

Event Time Altitude Azimuth Distance (km) Brightness Sun altitude
Exits shadow 12:47:46 35° 338° (NNW) 1,264 10.3 -23.2°
Drops below altitude 10° 12:52:30 10° 39° (NE) 2,366 12.4 -22.5°
Sets 12:55:08 0° 48° (NE) 3,298 13.3 -22.1°
